Home   Weather   Christiansted   Past weeks

Flag for US Virgin Islands Past Weather in Christiansted, US Virgin Islands — Yesterday and Last 2 Weeks

Now
87 °F

Scattered clouds.


Feels Like: 97 °F
Forecast: 78 / 83 °F
Wind: 17 mph from Southeast

Location: Christiansted / Henry E. Rohlsen Airport - Saint Croix

Current Time: Jun 28, 2017 at 11:43:20 am

Latest Report: Jun 28, 2017 at 10:53 am


Visibility: 10 mi

Pressure: 30.02 "Hg

Humidity: 67%

Dew Point: 75 °F

Location of ChristianstedLocation

Past Weather in Christiansted — Graph

°F

Christiansted Temperature Yesterday

Maximum temperature yesterday: 89 °F (at 10:53 am)
Minimum temperature yesterday: 79 °F (at 2:53 am)
Average temperature yesterday: 84 °F

High & Low Weather Summary for the Past Weeks

 TemperatureHumidityPressure
High90 °F (Jun 14, 11:53 am)100% (Jun 25, 7:45 pm)30.09 "Hg (Jun 25, 7:45 pm)
Low75 °F (Jun 23, 3:53 am)55% (Jun 17, 2:53 pm)29.93 "Hg (Jun 23, 4:53 am)
Average83 °F75%30.01 "Hg
* Reported Jun 13 9:53 am — Jun 28 9:53 am, Christiansted. Weather by CustomWeather, © 2017

Note: Actual official high and low records may vary slightly from our data, if they occured in-between our weather recording intervals... More about our weather records

Advertising

Christiansted Weather History for the Previous 24 Hours

Scroll right to see more
 ConditionsComfort  
Time TempWeatherWind HumidityBarometerVisibility
9:53 am
Wed, Jun 28
84 °FLight rain. Scattered clouds.10 mph80%30.02 "Hg10 mi
8:53 am86 °FScattered clouds.16 mph67%30.02 "Hg10 mi
7:53 am85 °FScattered clouds.13 mph75%30.02 "Hg10 mi
6:53 am82 °FScattered clouds.9 mph82%30.01 "Hg10 mi
5:53 am79 °FSunny.6 mph88%30.01 "Hg10 mi
4:53 am79 °FClear.5 mph88%30.00 "Hg10 mi
3:53 am79 °FPassing clouds.6 mph88%29.99 "Hg10 mi
2:53 am80 °FClear.8 mph81%29.99 "Hg10 mi
1:53 am80 °FClear.8 mph85%29.99 "Hg10 mi
12:53 am81 °FClear.8 mph82%30.01 "Hg10 mi
11:53 pm
Tue, Jun 27
81 °FPassing clouds.10 mph82%30.02 "Hg10 mi
10:53 pm81 °FPassing clouds.6 mph88%30.03 "Hg10 mi
9:53 pm82 °FClear.8 mph82%30.02 "Hg10 mi
8:53 pm82 °FPartly cloudy.10 mph82%30.01 "Hg10 mi
7:53 pm82 °FPassing clouds.8 mph82%30.00 "Hg10 mi
6:53 pm83 °FScattered clouds.10 mph77%29.98 "Hg10 mi
5:53 pm85 °FPassing clouds.13 mph72%29.97 "Hg10 mi
4:53 pm87 °FScattered clouds.14 mph67%29.97 "Hg10 mi
3:53 pm88 °FScattered clouds.15 mph65%29.98 "Hg10 mi
2:53 pm86 °FLight rain. Scattered clouds.14 mph70%30.00 "Hg10 mi
1:53 pm89 °FScattered clouds.16 mph63%30.01 "Hg10 mi
12:53 pm89 °FScattered clouds.16 mph65%30.02 "Hg10 mi
11:53 am89 °FPassing clouds.16 mph61%30.03 "Hg10 mi
Weather by CustomWeather, © 2017

See weather overviewHow to use our weather pages